NOAA 19 - Orbit

View from above orbital plane
View from above orbital plane
View from above satellite
View from above satellite

Ground track
Ground track

The orbit data is extracted from the following two-line orbital elements,

1 33591U 09005A   13145.42951536  .00000131  00000-0  96575-4 0  8107
2 33591 098.9023 087.6751 0015114 131.6394 016.5974 14.11505171221280
Epoch (UTC): 25 May 2013 10:18:30
Eccentricity: 0.0015114
inclination: 98.9023°
perigee height: 843 km
apogee height: 865 km
right ascension of ascending node: 87.6751°
argument of perigee: 131.6394°
revolutions per day: 14.11505171
mean anomaly at epoch: 16.5974°
orbit number at epoch: 22128

The dashed part of the orbit path shows where the satellite is in the earth's shadow,  

Developed and maintained by Chris Peat, Heavens-Above GmbH. Please read the updated FAQ before sending e-mail. Imprint. DLR